Lapse_Rate
6.0 6.5 6.5 6.5 6.5 6.5 6.5 6.5 6.5 6.5 6.5 6.5 6.5 6.5 6.5 4.8 4.9 4.0 3.1 2.4 2.4 2.6 3.1 2.1 1.4 1.2 1.2 -0.1 -0.1 0.4 1.1 1.6 1.9 1.0 2.5 3.1 3.1 2.9 2.5 2.7 2.9 3.1 3.8 3.8
6.5 6.5 6.5 6.5 6.5 6.5 6.5 6.5 6.5 6.5 6.5 6.5 6.5 6.5 6.5 5.7 5.3 4.0 3.6 3.0 3.3 4.0 3.0 2.3 1.7 1.0 1.1 0.9 0.3 0.6 0.8 1.6 1.3 2.6 2.7 3.8 3.2 3.9 3.7 3.9 4.0 3.6 3.8 3.5
6.5 6.5 6.1 6.5 6.5 6.5 6.5 6.5 6.5 6.5 6.5 6.5 6.5 6.5 6.5 6.4 4.4 3.6 3.6 2.9 3.4 3.4 3.2 2.2 1.1 1.4 0.1 0.2 0.2 0.7 0.9 1.5 1.7 2.3 2.7 2.5 2.9 3.2 3.1 3.3 3.6 3.1 3.6 3.7
6.5 6.1 6.5 6.5 6.5 6.5 6.5 6.5 6.5 6.5 6.5 6.5 6.5 6.5 6.5 6.5 6.5 6.2 4.0 2.8 3.3 2.7 1.7 1.5 1.7 1.9 0.9 -0.2 -0.9 -0.2 0.7 1.6 2.2 2.9 3.6 3.3 4.8 4.5 4.5 4.8 4.6 4.5 3.9 3.6
6.5 6.5 6.5 6.5 6.5 6.5 6.5 6.5 6.5 6.5 6.5 6.5 6.5 6.5 6.5 6.5 6.5 6.5 5.0 3.0 1.9 0.7 1.8 3.1 2.8 2.1 0.8 -0.1 -0.7 -0.4 0.7 1.4 1.8 2.7 4.0 4.5 4.7 5.3 5.3 5.4 4.7 5.0 4.9 4.5
6.5 6.0 6.4 6.5 6.5 6.5 6.5 6.5 6.5 6.5 6.5 6.5 6.5 6.5 6.5 6.5 6.5 6.5 5.7 3.2 3.3 2.3 2.2 2.7 2.8 2.3 0.9 0.4 -0.0 0.2 0.4 0.4 0.7 0.9 1.4 2.2 3.5 4.5 5.4 5.7 5.3 5.5 5.6 5.8
6.5 6.5 6.5 6.2 6.5 6.5 6.5 6.5 6.5 6.5 6.5 6.5 6.5 6.5 6.5 6.5 6.5 6.4 6.0 4.5 3.7 2.9 2.1 2.0 1.5 0.8 0.3 -0.3 -0.3 0.4 -0.1 -0.2 0.2 0.3 0.6 0.9 1.5 2.3 3.4 4.6 5.6 6.0 6.3 6.1
6.5 6.5 6.5 6.5 6.5 6.5 6.5 6.5 6.5 6.5 6.5 6.5 6.5 6.5 6.5 6.5 5.0 4.0 3.3 3.2 3.7 3.3 2.6 2.2 1.8 1.2 0.7 0.2 -0.4 -0.5 -0.5 -0.5 -0.3 -0.2 -0.2 0.4 0.8 1.6 2.5 3.2 3.6 4.3 5.4 6.2
6.5 6.5 6.5 6.5 6.5 6.5 6.5 6.5 6.5 6.5 6.5 6.5 6.5 6.5 6.5 6.5 6.5 5.4 5.5 4.0 4.0 3.3 2.3 1.8 1.4 0.6 0.3 -0.4 -0.8 -1.2 -1.2 -0.9 -1.0 -1.3 -1.2 -0.8 -0.4 0.1 1.0 1.9 2.7 3.4 4.0 5.0
6.5 6.5 6.5 6.5 6.5 6.5 6.5 6.5 6.5 6.5 6.5 6.5 6.5 6.5 6.5 6.5 6.5 6.5 6.2 6.1 4.8 3.9 3.0 1.9 1.0 0.1 -0.1 -0.6 -1.0 -1.3 -1.5 -1.6 -1.9 -2.2 -2.3 -1.6 -1.3 -0.9 -0.2 0.8 1.3 2.1 2.6 2.9
6.5 6.5 6.5 6.5 6.5 6.5 6.5 6.5 6.5 6.5 6.5 6.5 6.5 6.5 6.5 6.5 6.5 6.5 6.3 6.4 5.9 5.2 3.8 2.5 1.4 0.6 -0.4 -0.8 -1.4 -1.8 -2.2 -2.7 -3.1 -3.3 -3.4 -3.1 -2.4 -1.8 -1.6 -1.5 -1.1 -0.0 0.9 1.4
6.5 6.5 6.5 6.5 6.5 6.5 6.5 6.5 6.5 6.5 6.5 6.5 6.5 6.5 6.5 6.5 6.2 6.3 6.5 6.2 5.0 4.2 3.0 1.9 1.1 0.5 -0.8 -1.3 -1.3 -2.0 -2.3 -2.8 -3.0 -3.4 -3.2 -3.2 -3.1 -2.4 -2.9 -3.1 -2.8 -2.2 -1.8 -0.9
6.5 6.5 6.5 6.5 6.5 6.5 6.5 6.5 6.5 6.5 6.5 6.5 6.5 6.5 6.5 6.1 6.1 6.2 6.5 6.3 4.7 3.3 2.7 1.7 0.4 -0.2 -0.9 -1.2 -1.7 -2.1 -2.4 -3.1 -3.3 -3.7 -3.4 -3.3 -3.5 -3.6 -3.6 -3.9 -3.6 -3.1 -2.9 -2.8
6.4 6.5 6.5 6.5 6.5 6.5 6.5 6.5 6.5 6.5 6.5 6.5 6.5 6.5 6.5 6.5 6.5 6.3 5.7 5.1 5.2 4.4 2.9 2.5 1.1 0.6 -0.2 -0.4 -1.3 -1.8 -2.4 -2.9 -3.7 -3.7 -3.1 -2.8 -3.7 -4.1 -3.9 -4.6 -4.3 -3.7 -3.3 -3.0
6.5 6.5 6.5 6.5 6.5 6.5 6.5 6.5 6.5 6.5 6.5 6.5 6.5 6.5 6.5 6.5 6.5 6.2 4.9 4.9 5.0 4.7 4.6 2.3 1.2 0.5 0.2 -0.9 -1.7 -2.4 -2.6 -2.8 -3.4 -3.4 -2.5 -2.2 -3.2 -3.8 -4.4 -4.9 -5.0 -4.7 -3.6 -2.9
6.5 6.5 6.5 6.5 6.5 6.5 6.5 6.5 6.5 6.5 6.5 6.5 6.5 6.5 6.5 6.2 6.0 6.5 6.3 5.9 4.9 4.2 2.7 2.4 2.5 2.3 0.3 -1.1 -1.6 -2.3 -2.4 -2.7 -2.9 -2.8 -3.3 -3.0 -4.3 -5.0 -5.0 -5.0 -5.5 -5.4 -4.5 -3.1
6.5 6.5 6.5 6.5 6.5 6.5 6.5 6.5 6.5 6.5 6.5 6.5 6.5 6.5 6.5 6.5 6.6 6.4 6.6 5.6 4.0 3.3 3.4 3.2 2.6 2.4 1.7 0.2 -1.4 -1.9 -3.0 -1.9 -2.1 -1.7 -1.3 -2.7 -3.8 -4.5 -4.8 -4.7 -4.6 -5.0 -4.6 -3.6
6.5 6.5 6.5 6.5 6.5 6.5 6.5 6.5 6.5 6.5 6.5 6.5 6.5 6.5 6.4 6.3 6.2 5.7 5.7 5.1 4.2 3.2 3.2 2.8 2.4 0.8 0.5 -0.4 -1.9 -2.1 -1.9 -1.1 -1.6 -1.8 -2.6 -3.6 -4.2 -4.5 -4.2 -4.1 -3.9 -4.1 -4.0 -3.5
6.5 6.5 6.5 6.5 6.5 6.5 6.5 6.5 6.5 6.5 6.5 6.5 6.5 6.5 6.7 6.3 5.6 6.0 4.8 4.1 3.5 3.5 2.9 2.3 1.0 0.5 -0.1 -0.4 -0.8 -1.0 0.1 -0.3 -0.5 -1.7 -2.4 -2.2 -2.5 -3.0 -3.2 -3.5 -3.8 -3.7 -3.4 -2.5
6.5 6.5 6.5 6.5 6.5 6.5 6.5 6.5 5.6 6.5 6.5 6.4 6.0 6.5 6.5 5.6 6.5 6.5 5.2 4.3 3.4 2.6 2.3 1.5 1.5 1.1 0.3 -1.1 -1.3 -0.5 -0.3 -0.9 -1.2 -0.7 -0.6 -1.2 -1.7 -2.3 -2.7 -2.9 -3.0 -2.4 -2.0 -1.2
6.5 6.5 6.5 6.5 6.5 6.5 6.5 6.4 5.0 6.5 6.5 6.1 5.2 5.9 6.4 6.5 5.5 5.4 4.7 3.5 2.8 2.6 2.2 0.9 -0.4 -1.6 -1.7 -1.6 -0.9 0.0 0.3 0.3 -0.0 -0.8 -1.3 -1.8 -1.8 -1.8 -1.2 -1.1 -1.2 -1.6 -1.0 0.7
6.5 6.5 6.5 6.5 6.5 6.5 6.6 6.1 6.5 6.4 6.1 5.3 3.7 3.9 4.1 4.5 5.2 4.1 3.6 3.2 2.4 1.2 1.1 0.5 -0.3 0.1 0.4 0.8 0.3 0.5 0.3 -0.8 -1.6 -2.1 -2.7 -3.0 -2.6 -1.6 -0.2 -0.4 -0.2 0.7 1.7 2.5
6.5 6.5 6.5 6.5 6.5 6.7 6.8 6.7 5.7 5.6 5.9 5.4 3.7 4.6 3.8 3.6 3.5 3.4 3.1 3.1 3.2 2.2 1.7 1.8 0.9 0.9 0.7 -0.0 -0.1 -0.7 -1.1 -1.5 -1.8 -3.2 -3.4 -2.7 -1.8 -0.8 -0.2 0.5 1.2 2.1 3.0 5.9
6.5 6.4 6.5 6.5 6.5 6.6 7.0 5.6 4.3 3.7 3.0 3.7 3.1 2.8 3.1 2.1 3.1 3.1 3.9 3.1 2.8 2.5 1.6 0.9 0.1 -0.9 -1.5 -1.0 -0.6 -1.1 -1.6 -2.0 -3.3 -3.4 -2.4 -1.4 -1.0 -0.6 0.5 1.7 3.0 4.4 6.5 6.5
6.5 6.4 6.5 6.5 6.6 6.8 7.0 6.4 5.2 3.9 2.8 2.4 2.7 2.5 2.5 2.2 1.8 2.1 3.0 3.1 2.8 2.1 1.1 0.4 -0.7 -0.2 -0.6 -1.2 -1.8 -2.5 -2.4 -2.7 -3.0 -2.0 -1.1 -0.2 0.5 0.8 1.1 1.7 3.4 4.4 4.9 7.2
6.2 6.5 6.5 6.5 6.1 5.4 6.6 6.0 5.0 3.7 3.4 2.8 1.4 1.9 2.2 2.3 1.8 2.8 2.1 1.5 1.0 0.7 0.2 -0.4 -0.7 -0.9 -2.1 -2.9 -3.1 -3.3 -3.0 -2.4 -2.1 -1.2 -0.1 0.9 1.3 1.5 1.8 1.8 0.9 3.5 4.3 5.2
Wind_Speed
2 5 10 10 12 7 3 3 2 2 5 4 9 15 12 8 5 9 9 9 10 12 13 10 9 9 8 8 9 12 10 12 6 4 6 7 10 7 6 9 16 17 18 19
2 12 8 3 8 12 9 12 16 3 8 5 7 20 10 8 7 8 11 11 13 15 14 13 11 7 8 8 8 8 10 11 9 8 6 5 4 6 7 7 13 18 18 20
13 3 10 8 4 5 5 6 4 9 5 6 6 21 11 7 6 9 8 11 12 15 16 12 8 8 8 7 7 6 7 6 6 7 2 1 1 2 2 6 7 10 20 19
10 11 3 5 12 7 14 7 6 4 2 9 3 11 14 10 17 11 9 11 14 15 8 6 6 4 7 7 7 6 3 2 4 5 5 7 9 8 7 8 7 8 12 13
7 7 13 9 11 8 7 6 8 6 5 5 5 5 9 1 9 14 10 12 12 8 7 2 6 7 7 8 8 9 10 11 9 7 4 3 5 6 5 5 7 8 7 13
3 2 6 5 6 13 3 2 3 3 3 8 6 7 11 4 6 3 5 9 6 5 8 8 7 7 11 11 11 12 11 12 12 10 9 8 6 7 6 6 6 7 7 8
6 6 2 2 4 2 4 4 2 3 5 8 3 7 15 12 5 8 12 3 5 7 9 9 10 12 13 15 13 11 12 14 13 12 12 10 8 7 7 7 7 9 8 7
11 8 13 9 14 7 10 9 5 4 4 4 2 6 6 8 8 8 7 9 9 11 9 10 9 11 12 13 14 14 14 13 14 13 13 10 10 7 6 7 7 7 8 8
8 9 2 3 5 15 5 12 13 2 1 5 5 7 9 7 7 5 4 9 10 9 8 9 10 11 11 12 12 12 12 12 13 13 12 11 11 11 10 12 9 7 9 9
5 1 4 6 3 3 6 7 4 6 6 7 2 6 9 5 6 3 8 11 10 8 10 10 11 12 11 11 10 12 12 12 11 12 11 10 11 11 11 10 12 13 12 13
5 2 2 5 11 15 5 6 3 2 3 2 3 6 6 4 5 9 11 10 10 10 10 10 10 10 10 11 12 12 13 14 14 13 12 12 12 12 11 11 12 13 14 14
19 4 5 13 1 5 16 12 16 6 5 4 2 12 2 3 6 18 14 11 9 8 9 8 8 9 11 12 12 12 13 14 14 13 12 11 11 11 11 11 12 14 14 14
13 9 4 4 3 1 9 11 14 14 2 12 4 5 5 7 8 6 13 9 10 10 8 7 9 10 11 12 13 12 13 14 14 15 14 14 13 14 13 15 14 14 15 15
17 9 11 14 4 9 11 14 18 16 7 12 17 6 4 3 9 8 8 8 8 9 10 7 8 9 9 10 12 11 13 14 14 13 13 14 14 15 14 15 15 15 15 16
13 10 16 17 4 7 11 19 21 20 23 10 11 16 7 10 11 9 8 7 9 8 6 9 10 11 11 12 12 11 12 13 14 13 13 13 14 14 14 15 15 15 15 15
3 7 18 20 11 8 5 16 20 25 23 19 4 6 7 7 6 6 7 7 8 7 9 12 11 11 12 12 12 13 13 14 13 13 13 13 15 15 14 15 15 15 15 15
9 5 4 20 9 8 8 21 19 19 20 20 16 17 3 9 10 6 4 8 8 10 9 9 9 10 11 11 12 12 13 13 12 12 12 13 14 15 15 15 15 15 16 16
10 18 11 4 7 16 10 12 20 23 18 16 2 6 10 11 12 10 8 8 9 9 8 8 8 10 11 12 12 12 12 12 12 12 14 14 15 15 15 15 15 15 14 15
18 15 7 8 9 5 4 5 8 14 15 8 11 8 9 14 8 5 7 8 8 7 6 6 8 10 11 11 12 12 12 12 12 14 14 15 16 17 16 16 16 15 15 15
15 15 10 3 7 11 3 2 3 8 7 9 7 13 15 9 5 4 5 6 7 7 7 7 8 8 8 10 11 12 13 13 14 15 16 15 15 15 16 16 16 16 15 15
14 8 18 11 4 4 2 2 4 9 4 4 5 9 12 4 2 10 8 7 7 6 6 7 8 8 10 11 12 12 12 13 14 14 14 14 14 16 15 16 14 15 16 17
7 6 5 4 1 8 2 0 7 3 5 7 7 7 12 13 10 9 7 7 6 7 7 9 8 8 8 10 10 11 11 13 13 14 14 14 14 12 12 16 14 16 15 15
5 1 5 3 3 3 4 4 5 2 6 5 9 8 11 11 8 7 6 6 5 5 5 5 5 6 7 8 10 12 13 14 14 13 13 13 14 13 13 14 15 13 13 11
2 2 4 4 2 3 4 7 6 8 10 10 10 9 9 11 8 6 6 5 4 3 4 5 5 7 9 10 11 9 12 13 13 13 14 13 14 15 14 11 10 12 6 10
0 2 6 3 2 4 1 5 10 13 13 12 9 9 10 11 7 6 5 4 3 3 5 5 6 7 8 9 9 9 11 12 12 12 12 12 10 12 12 11 10 10 11 13
3 4 4 4 7 2 6 12 12 13 12 10 12 10 8 8 8 6 5 4 4 3 4 5 5 5 7 8 9 10 11 11 10 10 10 10 9 9 9 10 12 18 22 23
Wind_Direction
159 201 211 208 229 241 256 231 284 339 274 307 276 285 290 282 282 271 275 277 278 273 269 270 274 275 263 243 220 217 211 222 195 184 211 221 221 216 212 213 216 212 220 219
149 233 224 251 231 232 241 259 259 256 260 280 269 280 281 269 251 235 250 258 262 274 276 278 278 291 272 258 237 235 219 223 207 211 223 221 209 232 222 218 223 223 226 228
221 169 191 194 203 194 204 219 224 244 292 271 284 280 264 255 244 247 254 252 260 258 267 284 310 299 302 294 277 247 234 238 224 219 173 157 116 268 199 222 229 222 228 230
241 242 154 181 221 190 244 196 212 220 267 272 136 291 276 277 276 260 250 253 259 261 256 272 305 37 24 10 23 20 350 308 261 216 197 197 225 235 234 244 234 239 229 232
223 179 192 200 211 182 242 175 199 201 217 320 206 253 283 58 285 273 248 255 257 277 263 224 104 68 34 24 31 30 39 34 16 5 319 259 251 256 258 249 241 244 231 226
222 356 183 205 177 185 157 158 49 44 156 246 174 194 270 266 233 269 282 289 317 61 74 70 46 43 46 35 33 34 36 34 22 19 14 9 330 307 292 277 264 256 248 242
195 195 188 163 126 112 152 154 237 216 220 255 208 210 250 274 261 246 270 304 60 62 61 55 44 41 42 35 29 34 32 28 17 19 16 2 355 343 325 316 303 292 281 255
202 229 187 181 202 174 198 192 207 215 208 256 53 235 253 240 276 285 289 144 86 63 54 53 44 47 44 39 32 25 24 23 16 11 5 1 358 350 337 334 323 308 297 289
181 231 103 192 154 170 186 210 220 298 115 276 235 283 290 269 309 4 34 90 87 78 61 54 45 43 40 37 32 24 22 20 17 7 358 359 355 353 345 336 332 329 320 316
204 282 211 183 135 162 182 157 166 192 234 235 229 280 241 292 323 27 77 92 80 61 55 47 39 35 32 29 24 25 22 18 8 4 360 354 348 351 348 344 345 338 336 332
173 94 167 132 201 188 181 206 169 139 196 214 229 248 215 234 287 119 96 83 78 64 49 39 33 28 30 24 19 16 14 7 5 359 355 352 351 346 354 351 344 339 332 333
202 185 209 208 177 208 216 223 208 215 204 233 227 264 6 133 183 127 119 107 92 76 67 51 34 23 26 21 11 13 9 2 358 350 347 350 350 348 350 347 342 338 334 331
170 212 215 234 255 145 208 209 206 211 111 219 208 261 11 93 85 85 115 106 106 93 70 50 39 27 22 12 6 5 5 356 352 348 344 344 347 349 345 342 338 337 334 329
166 204 217 222 198 143 206 201 208 207 224 237 226 239 183 134 132 129 112 110 96 68 59 43 37 19 21 9 1 359 356 351 347 344 338 338 343 342 340 334 332 333 331 327
210 227 218 233 251 186 200 206 203 205 219 207 228 213 192 179 166 156 140 118 91 70 49 44 33 12 4 358 353 2 349 343 340 340 336 334 337 334 332 327 327 325 326 324
241 244 212 220 214 209 237 208 205 210 223 231 249 259 199 150 129 138 140 136 126 88 41 31 21 360 357 354 347 348 338 336 334 334 332 337 335 333 331 324 323 320 318 320
233 245 258 220 196 187 235 219 203 213 218 213 219 227 128 144 150 138 128 101 77 62 41 22 7 356 348 347 353 336 335 329 335 331 334 330 327 327 326 322 317 320 317 314
215 221 219 248 183 211 239 180 196 203 211 206 138 166 169 138 97 81 55 83 72 49 30 15 358 351 347 349 348 335 334 331 331 337 334 333 331 325 322 318 317 315 315 312
216 219 212 221 232 324 274 197 175 182 216 184 180 135 120 118 94 64 65 66 68 58 36 17 3 350 348 345 339 334 334 337 340 340 333 328 326 322 321 318 319 316 313 310
222 220 205 139 196 222 216 138 3 95 257 181 159 150 145 152 169 156 106 78 76 55 37 14 355 343 343 346 345 343 344 346 345 336 325 322 322 320 318 316 315 312 308 301
200 224 224 194 201 253 181 298 276 145 241 106 116 135 156 134 56 119 109 89 70 55 27 17 1 358 355 348 347 346 342 343 328 321 321 324 323 319 314 314 313 311 310 305
198 173 195 87 186 240 9 278 172 92 43 103 87 97 99 114 113 104 94 85 66 42 25 16 2 353 347 352 343 339 341 332 328 327 325 325 322 321 319 320 318 315 309 309
198 213 166 167 206 36 6 72 34 68 119 104 106 94 109 113 106 103 97 81 71 48 28 12 350 334 340 349 354 344 335 331 330 328 328 330 330 333 329 326 322 319 318 313
119 357 84 119 154 135 101 66 69 89 102 96 96 98 107 112 115 114 116 98 82 55 27 358 349 349 350 350 342 333 330 334 333 332 333 336 341 337 336 333 330 326 347 355
56 84 120 68 110 92 175 139 127 109 106 103 93 99 113 123 117 121 112 109 85 54 23 7 2 351 336 335 335 336 341 343 343 336 335 340 336 339 339 339 343 346 352 0
188 160 174 201 159 126 138 149 141 130 129 129 124 113 95 114 119 127 112 89 63 41 14 9 349 339 337 335 338 342 345 346 334 336 340 339 336 341 347 347 343 358 2 3